ARIANE 44L DEB, 28574

Orbit data source: Space-Track

ARIANE 44L DEB, 28574 is space debris in HEO originally from a launch on Tue, 15 Jan 1991 UTC launched from the French Guiana (FRGUI). Debris objects in space refer to the collection of defunct objects orbiting the Earth. Examples of debris include non-operational satellites, rocket bodies, and fragments generated from explosions, collisions, or faulty payload assembly.

Loading next visibility...
Identifier
28574, 1991-003P
Orbit
HEO
Country
Flag of FRFR
Related business
Manufacturer
Unknown
Mission
Spacecraft
Bus & Motor
Unknown
Mass
Unknown
Launch date (UTC)
1991-01-15 (35 years ago)
Launch vehicle
Unknown
Launch site
French Guiana (FRGUI)
Object type
Payload
Rocket body
Debris
Shape & HBR
Unknown shape, 1.1 m
Radar Cross Section
Medium (>0.1 m² and <1 m²)

Expand to show TLE details & history
Last TLE update: 9 months ago

TLE from 9 months ago
0 ARIANE 44L DEB
1 28574U 91003P   25277.40793293  .00001780  00000-0  69615-2 0  9994
2 28574   6.3722 221.3164 6579015 114.5557 324.9556  3.05113264132069
Epoch: 2025-10-04T09:47Z
TLE epoch observation values (Epoch: 2025-10-04T09:47:25.405Z)
Latitude
0.00003°
Longitude
60.86538°
Altitude
9,349.269 km
Speed
5.553 km/s
True Right ascension
14h 44m 14s
True Declination
0° 00' 00"
Sunlit
Object was in daylight at epoch
Visualization orbit readout
Latitude
Unknown
Longitude
Unknown
Altitude
Unknown
Speed
Unknown
Apparent Right ascension
Unknown
Apparent Declination
Unknown
Sunlit
N/A
Visualization observer readout
Local Sidereal Time
23:07:49
Azimuth
Unknown
Elevation
Unknown
Doppler factor
Unknown
Orbital elements
Apogee altitude
26,920.704 km
Perigee altitude
492.889 km
Semi-major axis
20,084.933 km
Eccentricity
0.6579
Inclination
6.3722°
RAAN
221.3164°
Arg. of periapsis
114.5557°
True anomaly
245.36643°
Mean anomaly
324.9556°
Eccentric anomaly
289.40108°
Mean motion
0.7625 °/min
Orbital period
472.13 mins
BSTAR
0.0069615
Loading maneuver chart data...
Computing Atmospheric mass density...
Loading historical data...
Loading historical data...
Loading historical data...
Loading historical data...
Loading historical data...
Loading historical data...
Loading historical data...

Documentation

Showing up to 5 results
|